Date,TemperatureHighF,TemperatureAvgF,TemperatureLowF,DewpointHighF,DewpointAvgF,DewpointLowF,HumidityHigh,HumidityAvg,HumidityLow,PressureMaxIn,PressureMinIn,WindSpeedMaxMPH,WindSpeedAvgMPH,GustSpeedMaxMPH,PrecipitationSumIn
2013-3-1,42,38,32,30,26,21,69,63,51,29.88,29.70,29,12,30,0.00
2013-3-2,36,32,29,25,21,19,73,65,56,29.88,29.81,25,11,26,0.00
2013-3-3,41,32,27,21,18,15,73,56,39,29.92,29.79,29,12,34,0.00
2013-3-4,42,32,24,18,15,11,68,50,34,30.02,29.92,31,12,33,0.00
2013-3-5,49,35,20,29,18,9,84,54,22,30.06,29.78,22,3,27,0.00
2013-3-6,40,35,32,35,31,28,100,87,66,30.00,29.64,36,8,38,0.32
2013-3-7,46,40,35,31,28,24,73,62,48,30.15,30.00,31,12,32,0.00
2013-3-8,47,40,35,29,26,23,71,58,45,30.29,30.13,38,15,43,0.00
2013-3-9,60,39,23,29,24,20,89,60,23,30.36,30.22,15,2,16,0.00
2013-3-10,64,45,24,34,25,20,92,53,24,30.28,30.14,21,5,24,0.00
2013-3-11,60,51,42,48,39,24,85,65,35,30.15,29.80,28,10,33,0.00
2013-3-12,57,50,40,53,42,27,96,73,54,29.94,29.70,31,12,33,0.67
2013-3-13,46,38,28,31,23,14,82,57,30,30.04,29.88,38,11,38,0.00
2013-3-14,43,36,30,20,16,12,61,44,32,30.13,30.02,38,17,45,0.00
2013-3-15,57,43,27,34,24,17,71,49,32,30.07,29.74,24,6,27,0.00
2013-3-16,52,42,36,37,34,30,87,73,56,29.90,29.60,20,4,21,0.00
2013-3-17,40,37,35,33,27,21,87,69,51,30.23,29.89,20,3,23,0.00
2013-3-18,37,33,30,32,27,20,96,81,53,30.28,29.87,19,2,23,0.22
2013-3-19,56,41,32,43,27,7,100,68,17,29.89,29.69,43,8,44,0.00
2013-3-20,50,41,32,28,15,10,74,37,22,29.95,29.73,32,12,32,0.00
2013-3-21,35,30,25,28,13,6,74,49,33,29.88,29.76,31,11,36,0.00
2013-3-22,44,34,24,20,16,10,63,48,33,29.98,29.86,30,9,30,0.00
2013-3-23,52,37,19,26,21,15,86,55,29,30.00,29.88,25,5,27,0.00
2013-3-24,41,33,24,31,24,18,94,71,47,29.98,29.60,11,1,15,0.02
2013-3-25,36,34,32,33,32,30,96,93,87,29.68,29.50,10,1,10,0.35
2013-3-26,48,38,28,35,30,24,98,73,40,29.99,29.68,28,6,30,0.01
2013-3-27,48,41,34,31,27,22,76,59,38,30.10,29.98,35,9,43,0.00
2013-3-28,47,40,32,32,29,24,76,64,52,30.20,30.06,29,9,32,0.00
2013-3-29,56,44,35,35,30,23,80,58,31,30.23,30.10,21,3,24,0.00
2013-3-30,59,41,25,33,25,17,91,59,20,30.22,30.06,19,2,23,0.00
2013-3-31,49,44,32,47,37,25,95,77,50,30.06,29.71,16,2,18,0.08